Flag for Germany Weather past 2 weeks in Ahrensburg, Schleswig-Holstein, Germany

Now
50 °F

Sprinkles. Partly cloudy.


Feels Like: 45 °F
Forecast: 51 / 58 °F
Wind: 14 mph from West

Location: Hamburg-Fuhlsbuettel

Current Time: Oct 22, 2014 at 6:11:36 AM

Latest Report: Oct 22, 2014 at 5:20 AM


Visibility: 4 mi

Pressure: 29.53 "Hg

Humidity: 94%

Dew point: 48 °F

Location of AhrensburgLocation

Historic Weather in Ahrensburg — Graph

°F

Ahrensburg temperature yesterday

Maximum temperature yesterday: 55 °F (at 10:20 AM)
Minimum temperature yesterday: 50 °F (at 4:20 AM)
Average temperature yesterday: 53 °F

Past Weeks' High & Low Weather Summary

 TemperatureHumidityPressure
High72 °F (Oct 19, 1:50 PM)100% (Oct 7, 1:50 PM)30.12 "Hg (Oct 7, 1:50 PM)
Low48 °F (Oct 8, 6:50 AM)59% (Oct 14, 3:50 PM)29.36 "Hg (Oct 21, 6:20 PM)
Average57 °F88%29.78 "Hg
* Reported Oct 7 4:20 AM — Oct 22 4:50 AM, Ahrensburg, Weather by CustomWeather, © 2014

Note: Actual official high and low records may vary slightly from our data, if they occured in-between our weather recording intervals... More about our weather records

Advertising

Ahrensburg weather history for previous 24 hours

 ConditionsComfort  
Time TempWeatherWind HumidityBarometerVisibility
4:50 AM
Oct 22
50 °FSprinkles. Partly cloudy.10 mph94%29.53 "HgN/A
4:20 AM50 °FLight rain. Passing clouds.10 mph94%29.53 "HgN/A
3:50 AM48 °FLight rain. Passing clouds.13 mph94%29.53 "HgN/A
3:20 AM48 °FPassing clouds.14 mph94%29.50 "HgN/A
2:50 AM48 °FPassing clouds.13 mph94%29.53 "HgN/A
2:20 AM48 °FPassing clouds.15 mph94%29.50 "HgN/A
1:50 AM48 °FPassing clouds.13 mph94%29.50 "HgN/A
1:20 AM50 °FPassing clouds.13 mph88%29.50 "HgN/A
12:50 AM50 °FPartly cloudy.12 mph88%29.47 "HgN/A
12:20 AM50 °FPartly cloudy.12 mph88%29.47 "HgN/A
11:50 PM
Oct 21
50 °FPartly cloudy.14 mph94%29.45 "HgN/A
11:20 PM50 °FLight rain. Partly cloudy.12 mph94%29.45 "HgN/A
10:50 PM50 °FLight rain. Partly cloudy.14 mph94%29.42 "HgN/A
10:20 PM52 °FPartly cloudy.13 mph94%29.42 "HgN/A
9:50 PM52 °FPassing clouds.10 mph94%29.39 "HgN/A
9:20 PM52 °FLight rain. Partly cloudy.10 mph94%29.39 "HgN/A
8:50 PM52 °FLight rain. Partly cloudy.9 mph94%29.39 "HgN/A
8:20 PM54 °FLight rain. Partly cloudy.10 mph94%29.36 "HgN/A
7:50 PM54 °FLight rain. Passing clouds.13 mph94%29.36 "HgN/A
7:20 PM54 °FLight rain. Passing clouds.14 mph94%29.36 "HgN/A
6:50 PM54 °FLight rain. Partly sunny.13 mph94%29.36 "Hg5 mi
6:20 PM54 °FCool.12 mph94%29.36 "HgN/A
5:50 PM54 °FLight rain. Partly sunny.15 mph94%29.39 "Hg3 mi
5:20 PM54 °FLight rain. Partly sunny.15 mph94%29.39 "Hg5 mi
4:50 PM54 °FLight rain. Partly sunny.15 mph94%29.39 "Hg5 mi
4:20 PM54 °FLight rain. Partly sunny.15 mph94%29.42 "HgN/A
3:50 PM54 °FLight rain. Partly sunny.15 mph94%29.45 "HgN/A
3:20 PM54 °FLight rain. Partly sunny.16 mph94%29.47 "HgN/A
2:50 PM55 °FLight rain. Partly sunny.15 mph88%29.47 "HgN/A
2:20 PM55 °FLight rain. Mostly cloudy.15 mph88%29.50 "HgN/A
1:50 PM55 °FLight rain. Partly sunny.16 mph88%29.53 "HgN/A
1:20 PM55 °FLight rain. Partly sunny.16 mph88%29.53 "HgN/A
12:50 PM55 °FLight rain. Partly sunny.14 mph88%29.56 "HgN/A
12:20 PM55 °FPartly sunny.15 mph88%29.59 "HgN/A
11:50 AM55 °FPartly sunny.15 mph88%29.59 "HgN/A
11:20 AM55 °FLight rain. Partly sunny.15 mph88%29.62 "Hg6 mi
10:50 AM54 °FRain. Partly sunny.15 mph94%29.62 "Hg2 mi
10:20 AM55 °FLight rain. Partly sunny.15 mph88%29.65 "Hg6 mi
9:50 AM54 °FLight rain. Partly sunny.15 mph94%29.65 "HgN/A
9:20 AM54 °FPartly sunny.13 mph94%29.68 "HgN/A
8:50 AM54 °FLight rain. Passing clouds.14 mph94%29.68 "HgN/A
8:20 AM54 °FLight rain. Passing clouds.13 mph94%29.68 "HgN/A
7:50 AM54 °FLight rain. Passing clouds.10 mph94%29.68 "HgN/A
7:20 AM54 °FPassing clouds.14 mph94%29.71 "HgN/A
6:50 AM54 °FPassing clouds.13 mph94%29.71 "Hg6 mi
6:20 AM54 °FPassing clouds.14 mph94%29.71 "Hg6 mi
Weather by CustomWeather, © 2014

See weather overviewHow to use our weather pages